Randolph AFB, TX

9:57 AM CDT on March 25, 2017 (GMT -0500)
Randolph Air Force Base

Weather History for KRND - January, 2015

Change the Weather History Date:

Saturday, January 3, 2015

  Actual Average Record
Temperature  
Mean Temperature 51 °F -  
Max Temperature 62 °F 61 °F 82 °F (2006)
Min Temperature 40 °F 41 °F 24 °F (2002)
Degree Days  
Heating Degree Days 14    
Growing Degree Days 1 (Base 50)    
Moisture  
Dew Point 40 °F    
Average Humidity 87    
Maximum Humidity 95    
Minimum Humidity 47    
Precipitation  
Precipitation 0.13 in - - ()
Sea Level Pressure  
Sea Level Pressure 29.97 in    
Wind  
Wind Speed 5 mph (WNW)    
Max Wind Speed 12 mph    
Max Gust Speed -    
Visibility 9 miles    
Events Rain , Thunderstorm    
Averages and records for this station are not official NWS values.
T = Trace of Precipitation, MM = Missing Value Source: NWS Daily Summary

Daily Weather History Graph

Daily Weather History Graph

Search for Another Location

Airport or City:

Trip Planner

Search our weather history database for the weather conditions in past years. The results will help you decide how hot, cold, wet, or windy it might be!

Date:

Astronomy

Jan. 03, 2015 Rise Set
Actual Time 7:28 AM CST 5:46 PM CST
Civil Twilight 7:02 AM CST 6:13 PM CST
Nautical Twilight 6:32 AM CST 6:42 PM CST
Astronomical Twilight 6:03 AM CST 7:11 PM CST
Moon 4:51 PM CST (1/3) 5:56 AM CST (1/3)
Length of Visible Light 11h 10m
Length of Day
10h 18m
Waxing Gibbous, 98% of the Moon is Illuminated
Jan 3
Waxing Gibbous
Jan 4
Full
Jan 13
Last Quarter
Jan 20
New
Jan 26
First Quarter

Hourly Weather History & Observations

Time (CST) Temp. Windchill Dew Point Humidity Pressure Visibility Wind Dir Wind Speed Gust Speed Precip Events Conditions
12:03 AM 41.0 °F 37.1 °F 39.2 °F 93% 29.94 in 7.0 mi NE 5.8 mph - N/A Rain Light Rain
12:08 AM 41.0 °F 39.0 °F 39.2 °F 93% 29.95 in 10.0 mi NNE 3.5 mph - N/A Rain Light Rain
12:18 AM 41.0 °F 37.1 °F 39.2 °F 93% 29.93 in 7.0 mi NE 5.8 mph - N/A Rain Light Rain
12:23 AM 41.0 °F - 39.2 °F 93% 29.95 in 6.0 mi NE 1.2 mph - N/A Rain Light Rain
12:27 AM 41.0 °F - 39.2 °F 93% 29.98 in 6.0 mi Calm Calm - N/A Rain , Thunderstorm Light Rain
12:32 AM 41.0 °F - 39.2 °F 93% 29.97 in 3.0 mi Calm Calm - N/A Rain , Thunderstorm Rain
12:37 AM 41.0 °F 37.1 °F 39.2 °F 93% 29.95 in 2.5 mi ENE 5.8 mph - N/A Rain , Thunderstorm Light Rain
12:39 AM 41.0 °F 35.8 °F 39.2 °F 93% 29.93 in 2.5 mi ENE 8.1 mph - N/A Rain , Thunderstorm Light Thunderstorms and Rain
12:44 AM 41.0 °F 36.4 °F 39.2 °F 93% 29.93 in 4.0 mi ENE 6.9 mph - N/A Rain , Thunderstorm Light Thunderstorms and Rain
12:49 AM 41.0 °F 35.8 °F 39.2 °F 93% 29.92 in 4.0 mi ENE 8.1 mph - N/A Rain , Thunderstorm Light Thunderstorms and Rain
12:54 AM 41.0 °F 38.0 °F 39.2 °F 93% 29.93 in 6.0 mi NE 4.6 mph - N/A Rain , Thunderstorm Light Thunderstorms and Rain
12:58 AM 40.3 °F 35.5 °F 39.0 °F 95% 29.94 in 7.0 mi NE 6.9 mph - 0.08 in Rain , Thunderstorm Light Thunderstorms and Rain
1:03 AM 41.0 °F 35.8 °F 39.2 °F 93% 29.92 in 7.0 mi NNE 8.1 mph - N/A Rain , Thunderstorm Light Thunderstorms and Rain
1:08 AM 41.0 °F 36.4 °F 39.2 °F 93% 29.92 in 7.0 mi NNE 6.9 mph - N/A Rain , Thunderstorm Light Thunderstorms and Rain
1:09 AM 41.0 °F 35.8 °F 39.2 °F 93% 29.91 in 7.0 mi NNE 8.1 mph - N/A Rain Light Rain
1:14 AM 41.0 °F 39.0 °F 39.2 °F 93% 29.93 in 5.0 mi Variable 3.5 mph - N/A Rain , Thunderstorm Light Rain
1:19 AM 41.0 °F 38.0 °F 39.2 °F 93% 29.95 in 5.0 mi NNW 4.6 mph - N/A Rain , Thunderstorm Light Rain
1:24 AM 41.0 °F 38.0 °F 39.2 °F 93% 29.94 in 6.0 mi NNW 4.6 mph - N/A Rain , Thunderstorm Light Rain
1:29 AM 41.0 °F - 39.2 °F 93% 29.94 in 9.0 mi NNE 2.3 mph - N/A Rain , Thunderstorm Light Rain
1:34 AM 41.0 °F 39.0 °F 39.2 °F 93% 29.94 in 7.0 mi North 3.5 mph - N/A Rain Light Rain
1:49 AM 41.0 °F - 39.2 °F 93% 29.94 in 9.0 mi NNW 2.3 mph - N/A   Light Drizzle
1:58 AM 40.6 °F - 39.4 °F 95% 29.96 in 6.0 mi NNW 1.2 mph - 0.04 in   Light Drizzle
2:03 AM 41.0 °F - 39.2 °F 93% 29.95 in 7.0 mi NW 2.3 mph - N/A   Light Drizzle
2:09 AM 41.0 °F 38.0 °F 39.2 °F 93% 29.95 in 10.0 mi NW 4.6 mph - N/A   Overcast
2:13 AM 41.0 °F 39.0 °F 39.2 °F 93% 29.94 in 10.0 mi NW 3.5 mph - N/A   Overcast
2:33 AM 41.0 °F 39.0 °F 39.2 °F 93% 29.94 in 10.0 mi West 3.5 mph - N/A   Overcast
2:38 AM 41.0 °F - 39.2 °F 93% 29.94 in 10.0 mi WNW 2.3 mph - N/A   Overcast
2:48 AM 41.0 °F - 39.2 °F 93% 29.94 in 10.0 mi West 2.3 mph - N/A   Overcast
2:58 AM 41.0 °F - 39.4 °F 94% 29.95 in 10.0 mi SSW 1.2 mph - 0.00 in   Overcast
3:38 AM 41.0 °F 38.0 °F 39.2 °F 93% 29.95 in 10.0 mi SW 4.6 mph - N/A   Overcast
3:50 AM 41.0 °F 38.0 °F 39.2 °F 93% 29.96 in 10.0 mi SW 4.6 mph - N/A   Overcast
3:58 AM 41.5 °F 37.8 °F 39.9 °F 94% 29.97 in 10.0 mi WSW 5.8 mph - N/A   Overcast
4:28 AM 41.0 °F 37.1 °F 39.2 °F 93% 29.96 in 10.0 mi WSW 5.8 mph - N/A   Overcast
4:31 AM 41.0 °F 36.4 °F 39.2 °F 93% 29.96 in 10.0 mi West 6.9 mph - N/A   Overcast
4:41 AM 41.0 °F 36.4 °F 39.2 °F 93% 29.95 in 10.0 mi West 6.9 mph - N/A   Overcast
4:51 AM 41.0 °F 36.4 °F 39.2 °F 93% 29.95 in 9.0 mi West 6.9 mph - N/A   Overcast
4:58 AM 41.9 °F 38.2 °F 40.1 °F 93% 29.95 in 8.0 mi West 5.8 mph - N/A   Overcast
5:23 AM 42.8 °F 39.3 °F 41.0 °F 93% 29.95 in 10.0 mi WSW 5.8 mph - N/A   Overcast
5:58 AM 41.9 °F 39.0 °F 40.3 °F 94% 29.97 in 10.0 mi West 4.6 mph - 0.01 in   Overcast
6:08 AM 42.8 °F 41.1 °F 41.0 °F 93% 29.96 in 10.0 mi West 3.5 mph - N/A   Overcast
6:13 AM 42.8 °F 40.1 °F 41.0 °F 93% 29.95 in 10.0 mi WNW 4.6 mph - N/A   Overcast
6:23 AM 42.8 °F 41.1 °F 41.0 °F 93% 29.96 in 10.0 mi WNW 3.5 mph - N/A   Overcast
6:33 AM 42.8 °F 41.1 °F 41.0 °F 93% 29.96 in 10.0 mi NW 3.5 mph - N/A   Overcast
6:43 AM 42.8 °F 39.3 °F 41.0 °F 93% 29.97 in 10.0 mi NW 5.8 mph - N/A   Overcast
6:48 AM 42.8 °F 40.1 °F 41.0 °F 93% 29.97 in 10.0 mi NW 4.6 mph - N/A   Overcast
6:58 AM 41.9 °F 38.2 °F 39.7 °F 92% 29.99 in 10.0 mi West 5.8 mph - N/A   Overcast
7:13 AM 41.0 °F 35.8 °F 39.2 °F 93% 29.99 in 10.0 mi WNW 8.1 mph - N/A   Overcast
7:18 AM 41.0 °F 35.8 °F 39.2 °F 93% 29.99 in 10.0 mi WNW 8.1 mph - N/A   Overcast
7:58 AM 40.6 °F 35.4 °F 37.4 °F 88% 30.02 in 10.0 mi WNW 8.1 mph - N/A   Overcast
8:08 AM 41.0 °F 34.3 °F 37.4 °F 87% 30.01 in 10.0 mi NW 11.5 mph - N/A   Overcast
8:23 AM 41.0 °F 34.7 °F 37.4 °F 87% 30.02 in 10.0 mi WNW 10.4 mph - N/A   Overcast
8:58 AM 41.0 °F 34.3 °F 37.9 °F 89% 30.04 in 10.0 mi NW 11.5 mph - N/A   Overcast
9:48 AM 42.8 °F 37.0 °F 37.4 °F 81% 30.06 in 10.0 mi WNW 10.4 mph - N/A   Overcast
9:58 AM 42.8 °F 37.0 °F 38.8 °F 86% 30.07 in 10.0 mi NW 10.4 mph - N/A   Overcast
10:18 AM 44.6 °F 41.4 °F 39.2 °F 81% 30.06 in 10.0 mi WNW 5.8 mph - N/A   Overcast
10:58 AM 45.9 °F 40.4 °F 39.4 °F 78% 30.05 in 10.0 mi NW 11.5 mph - N/A   Scattered Clouds
11:58 AM 49.3 °F - 39.6 °F 69% 30.03 in 10.0 mi Variable 5.8 mph - N/A   Clear
12:58 PM 53.1 °F - 41.2 °F 64% 29.98 in 10.0 mi Variable 3.5 mph - N/A   Clear
1:58 PM 57.7 °F - 40.8 °F 53% 29.94 in 10.0 mi SSE 3.5 mph - N/A   Clear
2:58 PM 61.3 °F - 42.6 °F 50% 29.94 in 10.0 mi SSE 6.9 mph - N/A   Clear
3:58 PM 62.4 °F - 42.1 °F 47% 29.94 in 10.0 mi SSW 8.1 mph - N/A   Clear
4:58 PM 61.0 °F - 42.4 °F 51% 29.95 in 10.0 mi South 10.4 mph - N/A   Clear
5:58 PM 55.4 °F - 42.8 °F 63% 29.97 in 10.0 mi South 6.9 mph - N/A   Clear
6:58 PM 54.3 °F - 41.9 °F 63% 30.01 in 10.0 mi SSW 6.9 mph - N/A   Clear
7:58 PM 52.3 °F - 41.4 °F 66% 30.04 in 10.0 mi SW 5.8 mph - N/A   Clear
8:58 PM 51.8 °F - 41.0 °F 67% 30.07 in 10.0 mi SW 6.9 mph - N/A   Clear
9:58 PM 45.3 °F - 40.5 °F 83% 30.09 in 10.0 mi SW 2.3 mph - N/A   Clear
10:58 PM 44.8 °F - 39.6 °F 82% 30.12 in 10.0 mi Calm Calm - N/A   Clear
11:58 PM 40.5 °F 35.8 °F 37.9 °F 91% 30.12 in 10.0 mi WNW 6.9 mph - N/A   Clear